Header for Extended Forecast Station List Page

Search by: ID | Name | Date | Parm | Value | Avg | % Avg
Sort by: ID | Name | Date | Parm | Value | Avg | % Avg

Enter search or view all records.

Click on id for station plot
#IDNameDateParmValueAvg% Avg
0HWRI1BIG LOST-AT HOWELL RANCH NEAR CHILLY06-14-2021DISCHARGE (KAF)3010030
1MACI1BIG LOST-MACKAY RESERVOIR NEAR MACKAY06-14-2021INFLOW (KAF)318836
2HALI1BIG WOOD-AT HAILEY06-14-2021DISCHARGE (KAF)4512636
3MAGI1BIG WOOD-MAGIC DAM06-14-2021INFLOW (KAF)87910
4BITM8BITTERROOT-NEAR MISSOULA06-14-2021DISCHARGE (KAF)30356054
5BONM8BLACKFOOT-NEAR BONNER06-14-2021DISCHARGE (KAF)31636986
6BIGI1BOISE-AT GLENWOOD BRIDGE06-14-2021DISCHARGE (KAF)18423777
7LUCI1BOISE-LUCKY PEAK DAM06-14-2021INFLOW (KAF)544MM
8PARI1BOISE-NEAR PARMA06-14-2021DISCHARGE (KAF)18723779
9HOTI1BRUNEAU-NEAR HOT SPRINGS06-14-2021DISCHARGE (KAF)74915
10BULO3BULLY CREEK-BULLY CREEK DAM06-14-2021INFLOW (KAF)M0M
11BUDW1BUMPING-BUMPING LAKE DAM06-14-2021INFLOW (KAF)274856
12CHDW1CHELAN-LAKE CHELAN DAM06-14-2021INFLOW (KAF)51054793
13ABOM8CLARK FORK-ABOVE MISSOULA06-14-2021DISCHARGE (KAF)53069676
14DLGM8CLARK FORK-AT DEER LODGE06-14-2021DISCHARGE (KAF)234848
15SRGM8CLARK FORK-AT ST REGIS06-14-2021DISCHARGE (KAF)1048166763
16BELM8CLARK FORK-BELOW MISSOULA06-14-2021DISCHARGE (KAF)829128664
17CABI1CLARK FORK-CABINET GORGE DAM06-14-2021INFLOW (KAF)3712517972
18NOXM8CLARK FORK-NOXON RAPIDS DAM06-14-2021INFLOW (KAF)3377484070
19DRMM8CLARK FORK-NR DRUMMOND06-14-2021DISCHARGE (KAF)82MM
20CLUW1CLE ELUM-CLE ELUM LAKE06-14-2021INFLOW (KAF)206152136
21ORFI1CLEARWATER-AT OROFINO06-14-2021DISCHARGE (KAF)712138851
22SPDI1CLEARWATER-AT SPALDING06-14-2021DISCHARGE (KAF)23182277102
23COEI1COEUR D ALENE-COEUR D ALENE LAKE06-14-2021INFLOW (KAF)29445065
24CIBW1COLUMBIA-AT INTL BOUNDARY06-14-2021DISCHARGE (KAF)21049MM
25BONO3COLUMBIA-BONNEVILLE DAM06-14-2021INFLOW (KAF)321704096579
26CHJW1COLUMBIA-CHIEF JOSEPH DAM06-14-2021INFLOW (KAF)216202558085
27GCDW1COLUMBIA-GRAND COULEE DAM06-14-2021INFLOW (KAF)218373158069
28JDAO3COLUMBIA-JOHN DAY DAM06-14-2021INFLOW (KAF)313274345672
29MCDW1COLUMBIA-MCNARY DAM06-14-2021INFLOW (KAF)308114281872
30PRWW1COLUMBIA-PRIEST RAPIDS DAM06-14-2021INFLOW (KAF)235543268872
31RRHW1COLUMBIA-ROCKY REACH DAM06-14-2021INFLOW (KAF)228692745683
32TDAO3COLUMBIA-THE DALLES DAM06-14-2021INFLOW (KAF)317453988280
33WANW1COLUMBIA-WANAPUM DAM06-14-2021INFLOW (KAF)235493207273
34WELW1COLUMBIA-WELLS DAM06-14-2021INFLOW (KAF)223632683883
35DEDI1DEADWOOD-NEAR LOWMAN06-14-2021INFLOW (KAF)185236
36MODO3DESCHUTES-AT MOODY NR BIGGS06-14-2021DISCHARGE (KAF)1062110696
37ARDW1ENTIAT-NEAR ARDENVOIR06-14-2021DISCHARGE (KAF)769778
38CHEI1FALL RIVER-NEAR CHESTER06-14-2021DISCHARGE (KAF)4213032
39CFMM8FLATHEAD-AT COLUMBIA FALLS06-14-2021DISCHARGE (KAF)1606221273
40KERM8FLATHEAD-SELI’Š KSANKA QLISPE’ DAM06-14-2021INFLOW (KAF)1802270567
41TRYO3GRANDE RONDE-TROY06-14-2021DISCHARGE (KAF)28739972
42REXI1HENRYS FORK-AT REXBURG06-14-2021DISCHARGE (KAF)23242255
43ANTI1HENRYS FORK-AT ST. ANTHONY06-14-2021DISCHARGE (KAF)23636066
44IPDI1HENRYS FORK-ISLAND PARK DAM06-14-2021INFLOW (KAF)10816466
45HODO3HOOD-NEAR TUCKER BRIDGE06-14-2021DISCHARGE (KAF)8710285
46SERO3JOHN DAY-AT SERVICE CK06-14-2021DISCHARGE (KAF)5311944
47KADW1KACHESS-KACHESS DAM06-14-2021INFLOW (KAF)4429150
48LAUW1KETTLE-AT LAURIER06-14-2021DISCHARGE (KAF)22750745
49PITW1KLICKITAT-NEAR PITT06-14-2021DISCHARGE (KAF)17524073
50BFEI1KOOTENAI-AT BONNERS FERRY06-14-2021STAGE (FT)MMM
51LEOI1KOOTENAI-AT LEONIA06-14-2021DISCHARGE (KAF)1867350853
52LYDM8KOOTENAI-LIBBY DAM06-14-2021INFLOW (KAF)2590372270
53LWRI1LITTLE WOOD-LITTLE WOOD DAM06-14-2021INFLOW (KAF)72625
54BERO3MALHEUR-AGENCY VALLEY DAM06-14-2021INFLOW (KAF)7974
55WRMO3MALHEUR-WARM SPRINGS DAM06-14-2021INFLOW (KAF)22105
56MYKO3MCKAY CREEK-NEAR PILOT ROCK06-14-2021DISCHARGE (KAF)0150
57PATW1METHOW-NEAR PATEROS06-14-2021DISCHARGE (KAF)27036075
58WGCM8MF FLATHEAD-NEAR WEST GLACIER06-14-2021DISCHARGE (KAF)45670465
59CLFW1NACHES-NEAR CLIFFDEL06-14-2021DISCHARGE (KAF)14115293
60NACW1NACHES-NEAR NACHES06-14-2021DISCHARGE (KAF)21823792
61DWRI1NF CLEARWATER-DWORSHAK DAM06-14-2021INFLOW (KAF)47175662
62FCFM8NF FLATHEAD-NEAR COLUMBIA FALLS06-14-2021DISCHARGE (KAF)48175364
63MONO3NF JOHN DAY-AT MONUMENT06-14-2021DISCHARGE (KAF)428351
64CSDI1NF PAYETTE-CASCADE DAM06-14-2021INFLOW (KAF)5914241
65TONW1OKANOGAN-NEAR TONASKET06-14-2021DISCHARGE (KAF)46766670
66OWYO3OWYHEE-OWYHEE DAM06-14-2021INFLOW (KAF)336154
67EMMI1PAYETTE-NEAR EMMETT06-14-2021DISCHARGE (KAF)32860954
68ALFW1PEND OREILLE-ALBENI FALLS DAM06-14-2021INFLOW (KAF)3792561668
69HOPI1PEND OREILLE-PEND OREILLE LAKE NR HOPE06-14-2021LAKE ELEVATION (FT)MMM
70PIHI1PORTNEUF-AT POCATELLO06-14-2021DISCHARGE (KAF)92437
71PRTI1PRIEST-NEAR PRIEST RIVER06-14-2021DISCHARGE (KAF)20824984
72RCCM8ROCK CREEK-NEAR CLINTON06-14-2021DISCHARGE (KAF)10513876
73WHBI1SALMON-AT WHITEBIRD06-14-2021DISCHARGE (KAF)1402275551
74ARAI1SF BOISE-ANDERSON RANCH DAM06-14-2021INFLOW (KAF)6216937
75HHWM8SF FLATHEAD-HUNGRY HORSE DAM06-14-2021INFLOW (KAF)48673067
76PLDI1SF SNAKE-PALISADES DAM06-14-2021INFLOW (KAF)1259216858
77SIFI1SNAKE-AB EAGLE ROCK NR IDAHO FALLS06-14-2021DISCHARGE (KAF)1329169778
78AFRI1SNAKE-AMERICAN FALLS RESERVOIR06-14-2021INFLOW (KAF)1108142278
79SNAI1SNAKE-AT BLACKFOOT06-14-2021DISCHARGE (KAF)59285969
80MILI1SNAKE-AT MILNER06-14-2021DISCHARGE (KAF)M80M
81WEII1SNAKE-AT WEISER06-14-2021DISCHARGE (KAF)2180309870
82SWAI1SNAKE-BELOW SWAN FALLS06-14-2021DISCHARGE (KAF)1421196272
83BRNI1SNAKE-BROWNLEE DAM06-14-2021INFLOW (KAF)2306320872
84IHDW1SNAKE-ICE HARBOR DAM06-14-2021INFLOW (KAF)6699905474
85JLKW4SNAKE-JACKSON LAKE AT DAM06-14-2021INFLOW (KAF)17042140
86LGSW1SNAKE-LITTLE GOOSE DAM06-14-2021INFLOW (KAF)6632910673
87LGDW1SNAKE-LOWER GRANITE DAM06-14-2021INFLOW (KAF)6694908374
88LMNW1SNAKE-LOWER MONUMENTAL DAM06-14-2021INFLOW (KAF)6687912273
89ALPW4SNAKE-NEAR ALPINE06-14-2021DISCHARGE (KAF)977161960
90ANAW1SNAKE-NEAR ANATONE06-14-2021DISCHARGE (KAF)4376674265
91BFTI1SNAKE-NEAR BLACKFOOT06-14-2021DISCHARGE (KAF)57078273
92HEII1SNAKE-NEAR HEISE06-14-2021DISCHARGE (KAF)2333246895
93JKSW4SNAKE-NEAR JACKSON06-14-2021DISCHARGE (KAF)823132862
94SHYI1SNAKE-NEAR SHELLEY06-14-2021DISCHARGE (KAF)1155136085
95LLKW1SPOKANE-AT LONGLAKE06-14-2021INFLOW (KAF)50680463
96SPOW1SPOKANE-AT SPOKANE06-14-2021DISCHARGE (KAF)353MM
97SJMI1ST JOE-AT ST MARIES06-14-2021STAGE (FT)MMM
98SATI1ST MARIES-NEAR SANTA06-14-2021DISCHARGE (KAF)202870
99STRM8ST. REGIS-NEAR ST. REGIS06-14-2021DISCHARGE (KAF)426465
100TNAW1TEANAWAY-BELOW FORKS06-14-2021DISCHARGE (KAF)2318134
101TEAI1TETON-NEAR ST. ANTHONY06-14-2021DISCHARGE (KAF)16324666
102RILW1TIETON-RIMROCK LAKE NEAR RIMROCK06-14-2021INFLOW (KAF)10710998
103PDTO3UMATILLA-AT PENDLETON06-14-2021DISCHARGE (KAF)131681
104GIBO3UMATILLA-NEAR GIBBON06-14-2021DISCHARGE (KAF)121585
105UMAO3UMATILLA-NEAR UMATILLA06-14-2021DISCHARGE (KAF)3931407
106TCHW1WALLA WALLA-NEAR TOUCHET06-14-2021DISCHARGE (KAF)31027
107WSRI1WEISER-NEAR WEISER06-14-2021DISCHARGE (KAF)548465
108PESW1WENATCHEE-AT PESHASTIN06-14-2021DISCHARGE (KAF)60867690
109UNDW1WHITE SALMON-NEAR UNDERWOOD06-14-2021DISCHARGE (KAF)15218881
110RIDI1WILLOW CREEK-RIRIE DAM06-14-2021INFLOW (KAF)1719
111EASW1YAKIMA-AT EASTON06-14-2021DISCHARGE (KAF)8079102
112KIOW1YAKIMA-AT KIONA06-14-2021DISCHARGE (KAF)43245794
113UMTW1YAKIMA-AT UMTANUM06-14-2021DISCHARGE (KAF)721713101
114KEDW1YAKIMA-KEECHELUS LAKE06-14-2021INFLOW (KAF)4536123
115PARW1YAKIMA-NEAR PARKER06-14-2021DISCHARGE (KAF)12213193